Powrót do katalogu

STARLINK-34600

AktywnyŁącznośćVLEO
NORAD 64699·PAYLOAD·🇺🇸 United States

Wystrzelony Jun 28, 2025 z Vandenberg Space Force Base

Loading…

Następne Przeloty (najbliższe 24 godziny)

TLE

ŚwieżeSource: CelesTrak SupGP

Epoka: Sep 15, 2026, 03:55 UTC

1 64699C 25142D   26258.16368056 -.00023203  00000+0 -80719-3 0  2583
2 64699  70.0011 194.8133 0003057 275.1735 294.8295 15.29590022    14

Śledź STARLINK-34600 w czasie rzeczywistym z AllMySat

Download on the App Store